N0YWB Weather Reports


time (UTC)temp
F
wind
direction
speed
knots
gust
knots
rain 1hr
in
rain 24hr
in
rain mn
in
humidity
%
barometer
mb
20260505063524 51 159 5.2 7.0 0.00 0.02 0.00 56 1009.2
20260505062541 51 142 6.1 9.6 0.00 0.02 0.00 56 1008.7
20260505061517 52 148 5.2 7.0 0.00 0.02 0.00 57 1008.7
20260505060532 52 147 6.1 9.6 0.00 0.02 0.00 55 1008.6
20260505055517 53 198 7.0 9.6 0.00 0.02 0.00 55 1008.5
20260505054540 53 159 6.1 9.6 0.00 0.02 0.00 57 1008.4
20260505053522 53 162 4.3 6.1 0.00 0.02 0.00 57 1008.6
20260505052525 54 152 5.2 7.8 0.00 0.02 0.00 57 1008.6
20260505051528 54 166 5.2 9.6 0.00 0.02 0.00 57 1008.4
20260505050530 54 164 4.3 6.1 0.00 0.02 0.00 57 1008.3
20260505041525 57 154 6.1 7.8 0.00 0.02 0.02 53 1008.1
20260505040528 56 150 5.2 8.7 0.00 0.02 0.02 52 1008.0
20260505035550 0 0.0 0.0 0.00 0.02 0.02 1007.8
20260505034547 56 135 7.0 7.8 0.00 0.02 0.02 49 1007.8
20260505033517 56 147 4.3 6.1 0.00 0.02 0.02 49 1007.3
20260505032600 57 158 4.3 7.0 0.00 0.02 0.02 47 1007.3
20260505031516 57 145 4.3 6.1 0.00 0.02 0.02 46 1007.3
20260505030525 57 161 5.2 9.6 0.00 0.02 0.02 47 1007.3
20260505025528 58 158 5.2 7.0 0.00 0.02 0.02 47 1007.1
20260505024531 59 158 6.1 8.7 0.00 0.02 0.02 46 1006.8
20260505023515 59 153 5.2 9.6 0.00 0.02 0.02 47 1006.8
20260505022518 60 149 6.1 10.4 0.00 0.02 0.02 48 1006.3
20260505021520 60 143 6.1 8.7 0.00 0.02 0.02 47 1005.9
20260505020523 61 152 7.0 9.6 0.00 0.02 0.02 47 1005.7
20260505015545 61 166 5.2 7.8 0.00 0.02 0.02 46 1005.4
20260505014528 62 144 5.2 8.7 0.00 0.02 0.02 45 1005.1
20260505013551 63 162 7.0 9.6 0.00 0.02 0.02 44 1004.7
20260505012535 63 154 6.1 9.6 0.00 0.02 0.02 43 1004.3
20260505011518 64 154 6.1 7.8 0.00 0.02 0.02 43 1004.1
20260505010520 65 149 7.0 13.0 0.00 0.02 0.02 44 1004.0
20260505005543 66 159 6.1 9.6 0.00 0.02 0.02 44 1003.8
20260505004525 67 144 7.0 13.0 0.00 0.02 0.02 43 1003.6
20260505003522 68 154 9.6 13.9 0.00 0.02 0.02 42 1003.2
20260505002519 69 149 7.8 10.4 0.00 0.02 0.02 41 1003.1
20260505001515 70 132 7.8 10.4 0.00 0.02 0.02 41 1003.0
20260505000518 71 168 8.7 15.6 0.00 0.02 0.02 42 1002.8
20260504235520 72 154 9.6 13.9 0.00 0.02 0.02 40 1002.5
20260504234543 0 158 4.3 4.3 0.00 0.02 0.02 1002.5
20260504233526 73 168 7.0 9.6 0.00 0.02 0.02 41 1002.2
20260504232529 74 186 7.8 11.3 0.00 0.02 0.02 39 1002.2
20260504231531 75 163 9.6 13.0 0.00 0.02 0.02 38 1001.9
20260504230515 77 162 8.7 15.6 0.00 0.02 0.02 39 1001.8
20260504225518 77 148 8.7 13.9 0.00 0.02 0.02 39 1001.7
20260504224520 78 147 8.7 14.8 0.00 0.02 0.02 40 1001.5
20260504223523 79 151 8.7 11.3 0.00 0.02 0.02 40 1001.3
20260504222546 79 152 7.8 9.6 0.00 0.02 0.02 41 1001.0
20260504221528 80 161 8.7 13.9 0.00 0.02 0.02 41 1001.0
20260504220531 80 144 8.7 13.9 0.00 0.02 0.02 42 1000.9
20260504215515 81 148 8.7 13.0 0.01 0.02 0.02 41 1000.8
20260504214518 83 113 7.0 12.2 0.01 0.02 0.02 37 1000.6
20260504213521 82 131 7.8 12.2 0.01 0.02 0.02 37 1000.6
20260504212517 81 138 6.1 10.4 0.01 0.02 0.02 37 1000.5
20260504211526 80 125 3.5 6.1 0.01 0.02 0.02 41 1000.7
20260504210528 80 126 3.5 7.0 0.02 0.02 0.02 42 1000.8
20260504205531 81 130 5.2 7.8 0.01 0.01 0.01 43 1001.0
20260504204515 80 124 3.5 5.2 0.01 0.01 0.01 44 1001.0
20260504203531 80 145 5.2 8.7 0.01 0.01 0.01 49 1001.1
20260504202515 78 163 2.6 5.2 0.01 0.01 0.01 58 1001.3
20260504201518 77 162 3.5 5.2 0.01 0.01 0.01 51 1001.3
20260504200521 80 128 5.2 7.8 0.00 0.00 0.00 42 1001.4
20260504195523 82 134 5.2 7.8 0.00 0.00 0.00 41 1001.5
20260504194526 82 137 4.3 7.0 0.00 0.00 0.00 41 1001.5
20260504193528 81 153 5.2 7.8 0.00 0.00 0.00 42 1001.7
20260504192531 81 121 4.3 7.8 0.00 0.00 0.00 42 1001.7
20260504191516 83 128 4.3 6.1 0.00 0.00 0.00 41 1001.9
20260504190539 82 148 7.0 9.6 0.00 0.00 0.00 40 1001.9
20260504185521 82 135 4.3 9.6 0.00 0.00 0.00 42 1001.8
20260504184524 0 113 5.2 5.2 0.00 0.00 0.00 1002.2
20260504183521 82 129 6.1 11.3 0.00 0.00 0.00 40 1002.0
20260504182518 81 155 5.2 7.8 0.00 0.00 0.00 41 1002.0
20260504181532 83 146 5.2 9.6 0.00 0.00 0.00 40 1002.0
20260504180517 82 139 5.2 10.4 0.00 0.00 0.00 42 1002.0
20260504175519 83 122 4.3 7.0 0.00 0.00 0.00 41 1002.0
20260504174522 82 131 4.3 7.0 0.00 0.00 0.00 42 1002.0
20260504173544 81 142 3.5 5.2 0.00 0.00 0.00 41 1002.2
20260504172547 82 108 4.3 6.1 0.00 0.00 0.00 42 1002.2
20260504171529 81 125 3.5 4.3 0.00 0.00 0.00 43 1002.2
20260504170532 80 111 4.3 11.3 0.00 0.00 0.00 44 1002.2
20260504150522 73 84 3.5 6.1 0.00 0.00 0.00 56 1003.7
20260504140533 63 131 2.6 3.5 0.00 0.00 0.00 68 1004.6
20260504130530 57 140 0.9 1.7 0.00 0.00 0.00 79 1004.7
20260504110525 42 0.0 0.0 0.00 0.00 0.00 99 1005.3
20260504100523 43 0.0 0.0 0.00 0.00 0.00 91 1005.8
20260504081516 43 77 0.9 1.7 0.00 0.00 0.00 99 1007.0
20260504080518 43 0.0 0.0 0.00 0.00 0.00 99 1007.1